Temperature
20 20 21 21 23 21 18 15 16 14 13 11 11 11 12 12 12 10 5 6 6 7 7 7 7 7 7 7 7 7 7 7 7 7 7 7 7 7 6 7 7 7 7 8 8 9 9 10 11
21 21 21 22 24 22 17 15 15 14 11 10 10 10 10 8 6 5 5 6 6 7 7 7 7 7 7 7 7 6 6 6 6 6 5 6 6 5 5 6 6 5 6 6 6 7 8 8 9
21 21 20 22 21 20 17 15 14 12 10 10 9 9 9 7 5 4 5 6 6 7 7 7 7 7 7 6 6 5 5 5 5 5 5 5 5 5 5 5 5 5 5 5 5 5 6 7 7
21 21 20 20 17 15 16 15 12 11 10 9 10 8 6 4 4 4 5 6 6 7 7 7 8 7 6 6 5 5 4 4 4 4 4 5 5 4 4 4 4 4 4 4 4 4 4 5 6
21 21 21 18 16 14 14 13 12 13 11 10 9 9 6 4 4 4 5 6 6 7 7 7 7 7 6 6 5 5 5 4 5 4 4 4 4 4 4 4 4 4 4 4 4 4 4 4 4
20 23 22 19 15 14 13 11 12 12 11 9 9 9 6 4 4 4 5 6 6 7 7 7 7 6 6 5 5 4 4 4 4 4 4 4 4 4 4 4 3 3 3 3 3 3 3 3 4
21 21 19 18 16 14 13 11 12 12 11 10 9 9 6 4 3 4 5 6 6 6 6 6 6 6 5 5 4 4 4 4 4 4 4 4 4 4 3 3 3 3 2 2 3 3 3 3 3
18 20 18 18 17 15 12 10 10 11 10 7 8 9 7 4 4 4 5 5 6 6 6 6 5 5 4 4 4 4 4 4 4 4 4 3 3 3 3 3 3 2 2 2 2 2 2 2 3
18 22 19 18 17 15 11 10 8 8 8 6 7 7 6 4 4 4 4 4 5 5 5 5 5 5 4 3 4 3 3 3 3 3 3 3 3 2 2 2 2 2 2 2 1 1 1 2 2
19 21 17 15 16 14 11 11 9 8 9 7 6 5 5 4 3 3 3 3 4 4 5 5 5 4 3 3 3 3 3 2 2 2 2 2 2 1 1 1 1 1 1 1 1 1 0 0 1
15 16 13 12 12 12 11 10 9 10 11 9 8 5 4 4 3 3 4 4 4 4 4 4 4 3 3 2 2 2 2 2 1 1 1 0 0 0 -0 -0 -0 -1 -1 -1 -1 -1 -1 -1 -1
14 12 12 11 9 11 11 9 9 10 11 9 8 6 5 4 4 4 3 3 3 4 4 4 3 2 2 2 1 1 1 0 0 -0 -1 -1 -1 -1 -2 -2 -2 -3 -3 -3 -3 -3 -3 -3 -3
14 11 10 9 9 10 9 10 10 9 7 7 6 5 5 5 4 3 3 3 3 3 3 3 2 2 1 1 1 0 -0 -0 -1 -1 -2 -2 -3 -3 -3 -4 -4 -5 -5 -6 -5 -5 -5 -5 -5
12 11 11 10 10 9 10 9 9 9 7 6 6 5 5 5 4 3 3 3 3 3 3 2 2 1 1 0 0 -0 -1 -1 -1 -2 -3 -3 -4 -5 -5 -6 -6 -7 -7 -7 -8 -8 -7 -7 -7
12 13 13 11 11 10 10 11 10 9 7 6 6 5 5 4 3 3 3 2 2 3 2 2 1 1 0 0 -0 -1 -1 -2 -2 -3 -4 -4 -5 -6 -7 -7 -7 -8 -8 -9 -9 -9 -9 -9 -9
15 16 17 13 11 9 11 16 12 8 7 7 7 6 5 4 3 3 2 2 2 2 2 1 1 0 0 0 -0 -1 -1 -2 -3 -3 -4 -5 -6 -7 -7 -8 -9 -9 -10 -10 -10 -10 -10 -10 -10
18 19 19 15 12 11 11 15 11 7 7 8 7 7 5 5 4 3 2 2 2 2 1 1 1 0 0 -0 -0 -1 -2 -2 -3 -4 -5 -6 -6 -7 -8 -9 -10 -10 -10 -10 -11 -11 -11 -11 -11
19 19 19 18 14 12 12 14 12 8 7 8 8 7 6 5 4 3 2 2 2 2 1 1 0 -0 -0 -0 -1 -1 -2 -3 -4 -4 -6 -6 -7 -8 -9 -10 -10 -11 -11 -11 -11 -11 -11 -11 -11
18 18 18 17 13 12 13 14 14 9 7 8 8 8 7 6 5 3 2 2 1 1 1 0 -0 -1 -1 -1 -1 -2 -3 -4 -5 -6 -7 -7 -8 -9 -9 -10 -10 -11 -11 -11 -12 -12 -12 -12 -12
17 18 18 16 12 12 13 14 14 12 9 8 9 8 7 6 5 2 2 1 1 1 1 0 -1 -1 -2 -2 -2 -3 -4 -5 -6 -7 -7 -8 -9 -9 -10 -10 -11 -11 -12 -12 -12 -12 -12 -12 -12
17 17 17 16 14 12 12 17 14 11 8 8 7 8 8 7 5 3 2 1 1 1 1 -0 -1 -1 -2 -2 -3 -4 -5 -6 -7 -7 -8 -8 -9 -10 -10 -11 -11 -11 -12 -12 -12 -12 -12 -12 -12
18 15 14 14 15 17 14 18 18 13 12 10 8 8 7 6 5 3 2 1 1 1 1 -0 -1 -2 -2 -3 -3 -4 -5 -6 -7 -8 -8 -9 -9 -10 -10 -11 -11 -11 -12 -12 -12 -12 -13 -13 -13
15 13 13 13 14 16 15 17 20 13 15 15 11 9 8 6 5 3 2 1 1 1 0 -1 -1 -2 -3 -3 -4 -4 -6 -6 -7 -8 -9 -9 -10 -10 -11 -11 -11 -11 -12 -12 -12 -12 -12 -13 -13
13 13 13 13 15 18 16 17 19 18 17 16 12 9 7 5 3 2 1 2 2 1 -0 -1 -2 -2 -3 -3 -4 -5 -6 -7 -8 -9 -9 -10 -10 -10 -10 -11 -11 -11 -11 -11 -12 -12 -12 -12 -13
15 18 19 19 19 19 14 15 18 17 15 13 12 9 7 4 3 2 2 2 1 1 -0 -1 -2 -2 -3 -3 -4 -5 -6 -7 -8 -9 -10 -10 -11 -11 -10 -11 -11 -11 -11 -11 -11 -11 -12 -12 -12
15 17 18 18 18 18 15 16 19 15 11 9 8 7 5 3 2 1 2 1 1 0 -1 -1 -2 -3 -3 -4 -4 -5 -7 -7 -8 -9 -10 -11 -11 -11 -11 -11 -11 -11 -11 -11 -11 -11 -11 -11 -12
16 16 15 16 16 15 18 18 18 13 11 9 8 6 5 3 2 1 1 1 1 0 -1 -1 -2 -3 -3 -4 -5 -6 -7 -8 -8 -9 -10 -11 -11 -11 -11 -11 -11 -11 -11 -11 -11 -11 -11 -11 -11
14 15 15 16 16 17 18 18 18 19 18 14 11 8 5 3 1 1 1 1 1 0 -1 -1 -2 -3 -3 -4 -5 -5 -7 -7 -8 -9 -10 -11 -11 -11 -11 -11 -11 -11 -11 -11 -11 -11 -11 -11 -11
13 13 14 15 15 16 17 19 18 18 17 15 13 10 6 3 2 2 1 1 1 -0 -1 -1 -2 -3 -4 -4 -5 -6 -7 -7 -8 -9 -10 -10 -11 -11 -12 -12 -11 -11 -11 -11 -11 -11 -11 -11 -11
14 15 15 16 16 14 15 18 18 15 14 12 11 9 6 4 2 2 1 1 0 -0 -1 -2 -3 -3 -4 -4 -5 -6 -7 -8 -8 -9 -9 -10 -11 -11 -12 -12 -12 -11 -11 -11 -11 -12 -12 -11 -11
Wind_Speed
5 3 1 2 3 7 7 6 6 8 5 5 7 6 7 7 5 6 4 9 11 13 15 18 21 21 22 23 24 25 25 26 26 27 28 28 28 28 28 28 28 28 28 28 28 29 29 29 29
4 1 1 2 1 6 6 6 8 7 9 9 6 6 7 7 7 6 3 8 10 12 14 17 20 20 21 23 23 24 24 25 25 26 27 27 28 28 28 28 28 28 28 28 28 28 29 29 29
5 4 4 5 5 5 8 9 11 12 9 4 5 5 5 6 5 4 5 7 9 12 13 17 20 20 21 22 22 22 23 24 24 25 26 27 27 28 28 28 28 28 28 28 27 28 28 29 29
2 4 5 7 10 5 7 13 13 12 6 4 6 8 5 4 3 5 6 6 9 12 14 16 20 20 20 21 21 22 22 23 24 25 26 26 27 27 27 28 28 28 28 28 28 28 28 28 28
2 3 6 7 7 7 9 11 11 7 7 6 7 7 7 6 7 7 6 7 9 11 13 15 19 19 19 20 21 21 22 23 24 25 26 26 27 27 27 27 28 28 28 28 28 28 28 28 28
3 3 4 7 8 8 8 8 7 6 7 7 7 8 7 8 7 6 6 7 9 11 12 13 16 17 18 19 21 21 21 22 23 24 25 26 26 26 26 27 27 28 28 28 28 29 28 28 28
3 5 6 10 10 8 7 7 8 7 8 7 7 8 8 10 8 6 5 6 8 10 11 13 14 15 15 16 19 19 19 21 21 22 24 24 24 24 24 25 27 27 28 28 28 29 29 29 28
4 7 8 8 10 8 9 7 4 5 7 6 6 6 8 13 10 6 4 4 6 8 11 13 14 14 14 12 15 16 17 19 20 20 23 23 22 22 23 24 27 27 28 28 28 28 29 28 27
0 5 6 8 8 8 11 8 5 4 8 5 4 2 7 16 11 6 4 4 5 7 10 12 13 13 13 12 12 14 15 17 18 18 21 21 20 20 21 23 26 26 27 27 27 28 28 27 24
5 4 5 3 3 9 13 9 10 8 8 7 7 7 14 15 11 7 4 4 6 8 9 10 12 13 13 11 11 12 13 14 16 17 19 18 18 18 20 22 23 24 25 25 25 27 25 22 20
7 7 6 5 6 11 12 10 10 9 8 9 13 17 18 14 11 7 4 4 5 6 7 9 10 11 12 11 11 11 11 12 13 15 17 17 16 16 17 18 19 21 22 20 22 22 20 21 21
8 8 7 7 7 9 10 10 8 10 3 5 13 19 18 15 11 8 5 3 4 6 7 8 9 10 11 11 10 10 10 11 11 13 15 16 15 15 17 16 18 18 18 20 20 19 21 22 22
7 7 6 8 8 8 9 8 6 8 3 8 15 17 17 14 11 8 5 4 3 5 7 7 7 10 11 10 10 10 11 11 12 12 13 16 15 15 17 17 17 18 18 19 20 20 22 22 21
9 11 10 7 7 6 6 5 5 8 9 14 17 17 15 14 12 9 7 4 2 4 6 7 7 9 11 10 11 10 11 11 12 12 14 16 15 16 17 17 17 18 18 19 20 21 21 19 19
9 9 7 5 4 4 4 6 8 8 14 16 17 16 15 14 12 11 8 5 2 3 4 6 7 9 11 11 11 10 11 12 11 12 13 15 16 17 17 17 17 18 19 21 20 20 19 18 18
5 4 4 5 5 4 5 6 6 13 17 17 16 16 15 14 14 11 9 6 3 2 3 5 7 9 11 11 11 10 11 12 11 12 12 15 17 17 17 16 17 19 20 19 17 16 16 16 17
4 3 2 4 6 5 7 7 6 13 16 16 16 16 15 15 15 12 10 7 4 1 2 4 7 9 11 12 11 10 11 11 11 11 12 16 17 18 18 16 17 19 18 17 16 15 16 17 18
1 2 3 3 5 7 9 11 5 13 16 17 17 17 17 16 16 13 11 8 5 2 1 4 6 9 11 10 10 10 10 11 10 11 13 16 16 18 17 16 18 18 16 14 15 18 17 17 17
1 3 5 2 3 6 11 14 11 12 16 18 17 18 18 17 14 12 12 10 7 3 1 4 6 8 9 8 8 8 10 9 10 11 14 15 16 17 17 16 17 17 15 16 18 17 19 17 16
2 5 5 2 2 4 10 15 9 9 17 18 18 18 18 16 14 13 13 11 8 4 1 3 5 7 8 8 8 8 10 8 10 11 13 14 16 17 16 17 17 17 15 18 18 18 16 17 15
3 4 5 6 3 4 8 5 3 3 8 13 16 17 17 17 16 15 14 12 8 4 1 3 5 6 8 9 8 9 8 7 8 10 11 15 17 17 17 18 18 18 17 16 19 19 20 17 17
3 1 4 5 6 3 4 4 3 2 5 9 14 16 17 16 15 14 14 12 8 4 1 2 4 6 7 8 9 10 9 10 11 10 11 16 16 17 17 18 19 19 17 17 18 18 18 18 16
3 1 3 3 3 3 1 5 1 1 3 5 8 12 14 14 14 14 14 11 8 5 2 2 4 5 6 8 9 10 9 9 10 11 13 14 15 16 17 18 19 19 17 18 19 19 18 15 15
2 2 3 3 3 2 1 4 3 2 2 3 3 5 9 11 12 13 12 10 8 5 2 2 4 5 6 7 8 9 11 12 13 13 13 13 12 14 17 19 19 19 18 18 18 18 18 15 16
2 5 4 3 2 3 1 5 6 1 4 6 6 5 6 10 13 14 14 11 8 6 3 2 4 5 6 7 8 9 10 12 13 13 13 14 12 13 16 19 19 19 19 20 19 16 16 15 15
2 4 4 5 6 6 2 5 4 2 3 5 7 7 7 12 13 14 13 10 8 6 4 3 3 4 6 7 8 8 10 9 9 12 12 13 12 13 18 19 19 20 20 20 18 14 14 13 13
1 2 2 2 4 6 6 5 7 4 7 9 9 8 10 13 14 14 12 10 8 6 5 3 3 4 6 7 8 8 9 10 11 12 12 11 13 15 18 19 18 19 19 19 17 13 14 13 13
3 4 3 2 4 6 8 7 4 5 6 6 9 12 12 14 15 14 12 11 8 6 5 4 3 4 6 7 7 7 9 10 11 11 12 13 15 16 17 17 17 17 18 18 15 15 14 15 13
5 4 3 2 3 4 7 7 4 8 7 8 9 9 12 15 16 15 12 11 8 7 5 4 3 4 5 6 7 8 9 10 11 10 12 13 14 16 15 16 16 16 16 16 15 15 15 15 15
3 5 6 4 4 4 5 8 3 7 7 9 10 8 10 14 15 14 13 11 9 8 6 4 3 4 5 6 7 8 9 10 10 11 12 13 14 15 15 16 15 15 15 15 15 15 15 14 15
Wind_Direction
99 120 248 238 99 77 87 89 115 126 103 88 77 79 80 60 44 90 86 13 1 356 355 357 9 12 15 16 17 17 17 17 17 16 15 14 12 11 10 8 7 5 3 1 359 357 355 353 352
84 115 337 17 120 118 102 121 128 112 120 118 92 89 89 84 73 89 65 16 7 6 3 4 11 14 16 17 17 18 17 18 17 16 14 13 11 9 8 7 5 3 2 360 358 356 353 351 349
90 57 54 65 75 103 126 138 128 120 127 129 109 77 83 99 94 86 51 21 17 18 13 11 15 16 18 19 18 18 17 17 16 15 13 12 9 7 6 4 2 1 360 358 357 354 351 349 347
108 78 67 70 86 75 123 139 136 135 136 125 132 113 98 71 88 93 71 38 30 27 20 17 18 19 20 20 19 19 18 17 15 13 11 9 7 4 3 2 359 358 357 355 354 352 350 347 344
72 92 84 82 88 108 120 133 147 148 143 142 143 125 114 108 108 102 78 47 35 29 23 21 22 22 21 21 19 18 16 15 12 10 8 6 4 1 360 359 356 355 353 352 351 349 347 345 342
87 79 109 119 118 131 142 156 165 153 142 147 148 131 125 140 133 106 80 56 40 30 24 23 23 23 21 20 18 16 14 12 10 7 4 2 360 358 356 355 353 351 350 348 347 345 343 341 339
86 78 101 126 138 156 159 168 184 165 156 154 153 138 141 160 141 120 90 63 45 33 28 25 22 19 17 16 15 13 12 10 8 5 2 358 356 354 353 352 350 348 347 345 343 341 339 338 335
82 102 111 137 151 159 152 148 153 169 144 136 170 164 165 165 152 137 102 68 48 37 31 25 21 16 9 5 10 8 9 7 4 2 359 355 352 351 350 349 347 345 343 341 339 338 336 334 331
345 106 134 152 163 157 159 155 140 125 138 150 173 165 141 146 154 155 138 93 57 42 34 25 18 12 4 358 358 0 2 3 1 359 356 354 350 348 345 343 341 341 339 337 336 335 333 331 327
23 102 113 108 137 155 163 170 158 163 170 174 168 145 142 151 163 165 143 80 49 37 31 24 16 8 1 355 354 357 359 358 358 355 353 349 346 342 340 337 337 336 335 333 333 332 330 329 326
52 84 109 99 109 145 154 162 169 181 195 199 185 164 159 166 171 170 147 86 53 38 30 23 15 5 1 355 353 355 353 352 351 351 349 344 341 338 337 335 334 333 332 332 330 329 328 325 322
85 79 98 117 126 149 158 161 184 204 226 188 174 162 165 175 180 178 161 112 69 41 29 19 10 4 359 354 350 352 350 347 345 344 346 344 338 335 334 331 330 329 328 326 326 323 321 319 316
87 107 94 110 123 137 152 178 196 206 197 159 156 164 175 182 182 176 162 138 82 44 29 16 1 1 356 350 347 348 347 344 341 341 343 343 337 332 330 326 325 323 322 322 321 318 318 315 313
107 114 117 122 127 150 172 189 218 205 168 161 165 176 185 189 188 183 183 170 101 47 27 10 358 357 351 348 346 344 344 341 339 340 341 341 336 329 326 323 321 320 320 320 316 314 313 311 310
120 116 126 146 156 160 194 224 222 179 170 173 181 187 193 197 196 198 191 175 129 63 24 7 354 351 346 344 343 342 342 341 339 338 337 338 334 330 327 322 320 320 320 317 314 313 311 310 309
143 163 187 167 180 171 224 266 167 167 178 186 192 196 200 203 206 203 190 179 153 90 15 2 350 343 343 342 339 340 340 341 338 336 335 337 336 333 329 323 321 321 319 316 314 313 312 311 309
188 230 251 179 195 191 227 265 150 177 190 199 202 206 208 208 209 203 194 185 172 140 2 351 349 343 340 337 335 337 337 337 336 336 337 338 336 334 330 323 320 321 318 315 313 312 311 309 308
182 265 272 268 181 211 239 256 204 192 204 212 212 214 214 215 212 202 193 186 179 176 342 347 346 343 338 336 336 336 338 337 337 336 337 336 334 332 329 322 321 321 317 315 314 312 309 306 306
312 280 293 309 152 234 258 269 258 207 210 220 221 220 221 222 215 197 193 189 189 195 305 347 343 343 342 341 340 338 336 332 332 333 332 331 331 330 326 322 320 319 315 313 310 309 308 307 307
251 279 296 281 178 258 292 286 275 221 216 223 227 227 226 223 210 198 194 193 198 203 280 337 342 340 342 340 332 326 321 319 322 327 328 329 329 326 323 319 318 316 314 311 310 309 306 304 305
257 283 311 311 304 234 301 279 171 186 226 233 237 238 234 226 216 201 195 194 196 201 256 339 337 333 337 336 330 326 322 323 332 333 329 328 326 322 319 318 317 315 313 309 309 308 303 303 302
297 295 292 292 296 303 337 320 148 184 239 233 233 232 233 226 219 204 193 191 191 181 162 322 327 327 334 336 334 335 332 332 332 329 323 324 323 321 321 320 318 315 313 310 309 306 301 298 296
314 308 264 258 270 277 261 298 268 153 240 230 232 232 230 223 213 199 189 182 174 165 174 300 315 320 332 336 336 333 330 328 325 326 324 326 324 323 323 324 322 320 317 314 311 307 302 296 291
246 217 185 201 237 266 58 313 291 177 227 246 238 241 225 211 198 187 175 167 166 167 190 274 303 316 330 334 335 333 330 328 326 328 327 328 325 324 327 329 326 324 322 318 315 311 305 298 291
271 309 314 309 310 344 76 275 267 254 247 261 271 267 221 197 186 177 173 174 177 186 206 255 291 316 332 334 333 331 327 325 325 327 326 326 325 326 328 329 328 326 324 323 321 317 313 305 297
21 348 359 324 318 316 255 262 276 226 244 253 260 259 215 195 188 183 179 178 181 190 208 245 287 318 330 330 329 325 325 323 321 323 322 321 321 322 323 326 325 326 326 327 328 322 321 314 305
145 100 24 275 282 282 274 273 286 209 248 243 242 234 215 198 191 186 181 180 184 192 207 240 285 314 325 325 323 320 325 324 321 320 318 319 320 321 322 324 326 328 330 330 331 328 329 323 314
9 140 169 250 304 299 294 280 263 276 286 243 237 232 217 199 192 188 184 183 186 192 204 229 275 308 315 316 319 317 320 321 319 317 319 320 320 322 322 325 327 329 331 331 331 331 337 335 332
159 164 179 184 253 275 298 292 207 259 282 276 270 245 215 198 193 189 184 183 185 192 206 226 263 294 305 312 314 316 319 320 318 317 319 320 320 322 323 325 327 329 330 330 329 333 335 337 337
232 210 193 229 224 228 266 274 210 242 260 262 270 261 220 200 192 187 182 181 188 198 207 222 252 282 299 306 309 313 317 319 319 320 320 320 321 322 322 324 325 327 329 328 327 332 334 336 337
Height
1557 1558 1558 1560 1561 1568 1588 1600 1601 1608 1612 1617 1617 1617 1617 1620 1622 1631 1634 1629 1628 1626 1624 1622 1619 1616 1612 1609 1605 1601 1597 1593 1590 1586 1582 1579 1575 1572 1568 1565 1562 1559 1555 1553 1550 1547 1544 1542 1539
1559 1559 1561 1561 1559 1572 1596 1602 1605 1610 1615 1618 1619 1620 1621 1626 1629 1631 1630 1628 1627 1626 1624 1621 1618 1615 1611 1608 1604 1600 1596 1592 1589 1585 1581 1577 1574 1570 1567 1563 1560 1557 1553 1550 1547 1544 1542 1539 1536
1560 1561 1563 1564 1571 1578 1596 1604 1608 1614 1617 1619 1621 1622 1624 1627 1629 1630 1629 1628 1627 1625 1623 1620 1617 1614 1610 1606 1603 1599 1595 1591 1587 1584 1580 1576 1573 1569 1566 1562 1558 1555 1551 1548 1545 1542 1539 1536 1533
1561 1562 1566 1571 1586 1599 1598 1605 1611 1615 1618 1620 1621 1624 1626 1627 1629 1629 1628 1627 1626 1625 1622 1620 1617 1613 1609 1605 1601 1598 1594 1590 1587 1583 1579 1576 1572 1568 1564 1560 1557 1553 1549 1546 1542 1539 1535 1532 1530
1562 1563 1567 1582 1595 1604 1605 1610 1613 1614 1617 1620 1621 1623 1626 1628 1627 1627 1627 1627 1626 1624 1622 1619 1615 1612 1608 1604 1600 1596 1593 1589 1586 1582 1579 1575 1571 1567 1563 1559 1555 1551 1547 1543 1539 1535 1532 1529 1526
1563 1563 1568 1584 1597 1606 1610 1612 1614 1615 1618 1620 1622 1623 1627 1627 1627 1627 1627 1626 1625 1623 1621 1618 1614 1610 1606 1602 1599 1595 1592 1588 1584 1581 1577 1573 1569 1565 1561 1556 1552 1548 1544 1540 1536 1532 1528 1525 1521
1565 1568 1577 1586 1596 1603 1609 1612 1613 1614 1617 1620 1621 1623 1626 1627 1626 1626 1626 1625 1624 1622 1620 1617 1613 1609 1605 1601 1597 1593 1590 1586 1582 1578 1574 1570 1566 1562 1558 1554 1549 1545 1541 1537 1532 1528 1524 1520 1517
1566 1572 1583 1587 1592 1599 1609 1612 1614 1615 1617 1620 1621 1622 1624 1626 1625 1625 1625 1624 1623 1621 1619 1615 1612 1607 1603 1599 1595 1591 1588 1585 1581 1577 1573 1568 1564 1560 1555 1551 1546 1542 1537 1533 1528 1524 1519 1515 1512
1569 1571 1580 1587 1591 1598 1608 1611 1614 1615 1617 1619 1620 1621 1622 1623 1623 1624 1625 1624 1622 1620 1617 1614 1610 1605 1601 1597 1594 1590 1587 1583 1579 1575 1571 1566 1562 1557 1553 1548 1543 1538 1534 1529 1524 1519 1514 1510 1506
1571 1574 1586 1593 1594 1599 1606 1609 1612 1615 1616 1617 1618 1619 1620 1621 1623 1624 1625 1624 1622 1619 1616 1612 1608 1603 1599 1596 1593 1589 1586 1582 1577 1573 1568 1564 1559 1554 1549 1544 1539 1534 1529 1524 1519 1514 1509 1505 1501
1580 1586 1595 1599 1600 1602 1606 1609 1611 1612 1612 1613 1614 1616 1618 1620 1622 1623 1622 1621 1619 1617 1614 1610 1606 1601 1597 1594 1591 1587 1583 1579 1574 1570 1565 1560 1555 1550 1545 1539 1534 1529 1524 1519 1514 1509 1504 1500 1495
1587 1596 1598 1601 1602 1604 1606 1608 1610 1610 1610 1610 1612 1614 1616 1619 1620 1621 1621 1619 1617 1615 1612 1608 1604 1600 1596 1592 1589 1584 1580 1576 1571 1566 1561 1556 1551 1546 1541 1535 1530 1524 1519 1514 1509 1503 1499 1494 1490
1591 1599 1601 1603 1604 1605 1607 1608 1608 1608 1608 1609 1611 1613 1616 1618 1619 1618 1618 1616 1615 1613 1610 1606 1602 1598 1594 1590 1586 1582 1578 1573 1568 1563 1558 1553 1547 1542 1536 1531 1525 1520 1515 1509 1504 1499 1494 1489 1484
1595 1599 1602 1604 1605 1607 1607 1608 1608 1605 1607 1609 1610 1613 1615 1616 1616 1616 1615 1614 1613 1611 1608 1604 1600 1596 1592 1588 1584 1580 1576 1571 1566 1561 1556 1550 1544 1538 1532 1526 1521 1516 1510 1505 1499 1494 1488 1483 1478
1597 1599 1603 1605 1605 1607 1608 1605 1603 1603 1606 1608 1610 1612 1613 1614 1614 1614 1613 1612 1611 1609 1606 1602 1598 1594 1590 1586 1582 1578 1574 1569 1564 1558 1552 1546 1540 1534 1528 1522 1517 1511 1506 1500 1494 1489 1484 1478 1472
1595 1594 1592 1601 1604 1606 1608 1592 1598 1601 1604 1606 1608 1610 1610 1611 1611 1611 1610 1609 1608 1606 1603 1600 1596 1592 1588 1585 1581 1576 1572 1566 1561 1555 1548 1542 1536 1530 1524 1519 1513 1508 1502 1496 1491 1485 1479 1473 1467
1589 1585 1586 1595 1602 1603 1603 1591 1598 1600 1602 1604 1605 1606 1607 1608 1608 1607 1606 1606 1605 1603 1601 1597 1594 1590 1587 1583 1578 1574 1569 1563 1558 1552 1546 1539 1533 1527 1521 1515 1510 1504 1498 1493 1487 1481 1476 1469 1462
1585 1584 1585 1587 1596 1600 1597 1590 1594 1598 1600 1600 1602 1602 1603 1603 1604 1604 1603 1602 1601 1600 1598 1595 1591 1588 1584 1580 1576 1572 1567 1561 1555 1549 1543 1536 1530 1524 1518 1513 1507 1501 1495 1489 1483 1478 1471 1465 1458
1588 1587 1585 1587 1596 1597 1590 1587 1587 1593 1596 1596 1596 1597 1597 1598 1601 1600 1599 1598 1598 1597 1595 1592 1589 1584 1580 1577 1573 1568 1563 1557 1551 1545 1539 1533 1527 1521 1515 1510 1503 1498 1491 1485 1479 1473 1467 1461 1455
1590 1587 1584 1588 1596 1595 1587 1582 1581 1584 1589 1590 1591 1592 1592 1595 1596 1595 1595 1595 1595 1594 1592 1589 1585 1581 1577 1573 1569 1565 1559 1553 1547 1542 1536 1530 1524 1518 1512 1506 1500 1494 1488 1481 1476 1470 1463 1456 1452
1589 1587 1587 1590 1591 1594 1591 1572 1578 1584 1586 1587 1587 1587 1588 1590 1591 1591 1590 1591 1591 1591 1589 1586 1582 1578 1574 1571 1566 1561 1556 1551 1546 1539 1533 1527 1521 1515 1509 1503 1497 1491 1485 1478 1471 1465 1459 1452 1447
1587 1592 1593 1593 1589 1580 1589 1570 1567 1576 1580 1581 1581 1581 1582 1584 1586 1587 1586 1587 1588 1587 1585 1582 1579 1575 1571 1568 1563 1558 1553 1548 1542 1536 1530 1524 1518 1512 1506 1500 1494 1488 1481 1474 1467 1461 1454 1448 1441
1591 1594 1593 1592 1589 1583 1584 1575 1561 1575 1571 1572 1575 1576 1577 1579 1581 1582 1582 1583 1584 1583 1581 1579 1576 1572 1569 1565 1560 1555 1550 1545 1539 1533 1527 1521 1515 1510 1504 1498 1491 1485 1478 1471 1463 1456 1449 1443 1437
1593 1593 1592 1591 1585 1575 1581 1578 1563 1564 1565 1568 1572 1573 1573 1574 1576 1577 1578 1579 1580 1579 1578 1575 1572 1569 1566 1562 1558 1553 1547 1542 1536 1530 1524 1518 1512 1507 1501 1495 1488 1482 1475 1468 1460 1452 1445 1438 1433
1590 1582 1576 1572 1571 1570 1587 1582 1565 1562 1566 1568 1569 1570 1570 1570 1571 1572 1573 1575 1576 1576 1574 1572 1569 1567 1564 1560 1555 1550 1544 1539 1533 1527 1521 1515 1509 1504 1498 1492 1485 1479 1472 1465 1458 1450 1442 1435 1429
1589 1585 1586 1588 1579 1573 1580 1574 1558 1564 1566 1566 1566 1566 1566 1566 1567 1568 1570 1571 1572 1572 1570 1569 1566 1564 1561 1557 1552 1547 1541 1536 1530 1525 1519 1513 1507 1501 1495 1489 1483 1477 1470 1463 1456 1448 1441 1433 1427
1588 1588 1592 1588 1589 1589 1568 1564 1557 1562 1562 1563 1562 1562 1561 1561 1562 1564 1565 1567 1568 1567 1567 1565 1563 1561 1558 1553 1549 1544 1539 1533 1528 1522 1517 1511 1505 1498 1492 1487 1481 1475 1468 1462 1455 1448 1441 1433 1426
1593 1590 1591 1588 1588 1581 1565 1561 1557 1549 1550 1555 1557 1556 1556 1556 1557 1559 1561 1562 1563 1563 1563 1561 1560 1558 1554 1550 1546 1541 1536 1531 1525 1519 1514 1508 1502 1496 1490 1484 1478 1472 1466 1460 1454 1447 1440 1433 1427
1593 1593 1590 1589 1588 1585 1574 1556 1547 1546 1548 1550 1550 1551 1550 1550 1551 1553 1556 1558 1559 1559 1558 1557 1556 1554 1551 1547 1543 1538 1533 1528 1522 1517 1511 1505 1499 1493 1487 1482 1476 1470 1464 1458 1452 1446 1439 1433 1426
1587 1585 1585 1584 1583 1587 1581 1560 1543 1545 1547 1547 1546 1546 1545 1545 1547 1549 1551 1553 1554 1554 1554 1554 1552 1550 1547 1544 1540 1535 1530 1525 1520 1515 1509 1502 1496 1491 1485 1479 1473 1467 1462 1456 1450 1444 1438 1431 1425